Weather History for Tillamook, OR

Change the Weather History Date:

Wednesday, December 12, 2012

  Actual Average (KMMV) Record (KMMV)
Temperature  
Mean Temperature 42 °F 40 °F  
Max Temperature 48 °F 46 °F 64 °F (1960)
Min Temperature 37 °F 34 °F -24 °F (1919)
Degree Days  
Heating Degree Days 22 25  
Month to date heating degree days 291  
Since 1 July heating degree days 1513  
Cooling Degree Days 0 0  
Month to date cooling degree days 0  
Year to date cooling degree days 215  
Moisture  
Dew Point 41 °F    
Average Humidity 93    
Maximum Humidity 100    
Minimum Humidity 82    
Precipitation  
Precipitation 0.17 in 0.19 in 2.00 in (1896)
Month to date precipitation 2.30  
Year to date precipitation 35.95  
Sea Level Pressure  
Sea Level Pressure 29.85 in    
Wind  
Wind Speed 3 mph (SE)    
Max Wind Speed 7 mph    
Max Gust Speed -    
Visibility 8 miles    
Events Rain    
T = Trace of Precipitation, MM = Missing Value Source: NWS Daily Summary

Daily Weather History Graph

Daily Weather History Graph

Search for Another Location

Airport:

Trip Planner

Search our weather history database for the weather conditions in past years. The results will help you decide how hot, cold, wet, or windy it might be!

Date:

Astronomy

Dec. 12, 2012 Rise Set
Actual Time 8:46 AM MST 5:32 PM MST
Civil Twilight 8:12 AM MST 6:06 PM MST
Nautical Twilight 7:34 AM MST 6:43 PM MST
Astronomical Twilight 6:58 AM MST 7:19 PM MST
Moon 7:56 AM MST (12/12) 5:15 PM MST (12/12)
Length of Visible Light 9h 54m
Length of Day
8h 45m
Waning Crescent, 0% of the Moon is Illuminated
Dec 12
Waning Crescent
Dec 13
New
Dec 19
First Quarter
Dec 28
Full
Jan 4
Last Quarter

Hourly Weather History & Observations

Time (MST) Temp. Windchill Dew Point Humidity Pressure Visibility Wind Dir Wind Speed Gust Speed Precip Events Conditions
12:15 AM 44.6 °F 43.1 °F 42.8 °F 93% 29.71 in 10.0 mi SSE 3.5 mph - N/A   Overcast
12:35 AM 42.8 °F 40.1 °F 41.0 °F 93% 29.71 in 10.0 mi SE 4.6 mph - N/A   Mostly Cloudy
12:55 AM 42.8 °F 39.3 °F 41.0 °F 93% 29.71 in 10.0 mi SSE 5.8 mph - N/A   Overcast
1:15 AM 42.8 °F - 41.0 °F 93% 29.72 in 10.0 mi Calm Calm - N/A   Overcast
1:35 AM 42.8 °F 39.3 °F 41.0 °F 93% 29.72 in 10.0 mi SE 5.8 mph - N/A   Overcast
1:55 AM 42.8 °F 39.3 °F 41.0 °F 93% 29.72 in 10.0 mi SE 5.8 mph - N/A   Overcast
2:15 AM 42.8 °F 41.1 °F 41.0 °F 93% 29.73 in 10.0 mi SSE 3.5 mph - N/A   Overcast
2:35 AM 42.8 °F 39.3 °F 41.0 °F 93% 29.73 in 10.0 mi SE 5.8 mph - N/A   Mostly Cloudy
2:55 AM 41.0 °F 38.0 °F 41.0 °F 100% 29.73 in 10.0 mi SE 4.6 mph - N/A   Mostly Cloudy
3:15 AM 41.0 °F 38.0 °F 41.0 °F 100% 29.74 in 10.0 mi SE 4.6 mph - N/A   Scattered Clouds
3:35 AM 42.8 °F 40.1 °F 41.0 °F 93% 29.75 in 10.0 mi SSE 4.6 mph - N/A   Mostly Cloudy
3:55 AM 42.8 °F 40.1 °F 41.0 °F 93% 29.75 in 10.0 mi SSE 4.6 mph - N/A Rain Light Rain
4:15 AM 42.8 °F 40.1 °F 41.0 °F 93% 29.75 in 10.0 mi SE 4.6 mph - N/A   Mostly Cloudy
4:35 AM 41.0 °F 37.1 °F 41.0 °F 100% 29.75 in 10.0 mi SSE 5.8 mph - N/A   Mostly Cloudy
4:55 AM 42.8 °F - 41.0 °F 93% 29.75 in 7.0 mi Calm Calm - 0.02 in Rain Light Rain
5:15 AM 41.0 °F 38.0 °F 41.0 °F 100% 29.75 in 10.0 mi ESE 4.6 mph - N/A   Mostly Cloudy
5:35 AM 41.0 °F 39.0 °F 41.0 °F 100% 29.76 in 7.0 mi SSE 3.5 mph - N/A Rain Rain
5:55 AM 41.0 °F - 41.0 °F 100% 29.77 in 10.0 mi Calm Calm - 0.01 in   Overcast
6:15 AM 41.0 °F 39.0 °F 41.0 °F 100% 29.77 in 10.0 mi ESE 3.5 mph - N/A   Mostly Cloudy
6:35 AM 42.8 °F 38.6 °F 41.0 °F 93% 29.77 in 10.0 mi SE 6.9 mph - N/A   Mostly Cloudy
6:55 AM 42.8 °F 39.3 °F 41.0 °F 93% 29.77 in 10.0 mi SE 5.8 mph - N/A   Overcast
7:15 AM 42.8 °F 41.1 °F 41.0 °F 93% 29.78 in 10.0 mi SE 3.5 mph - N/A   Overcast
7:35 AM 42.8 °F - 41.0 °F 93% 29.79 in 10.0 mi Calm Calm - N/A Rain Rain
7:55 AM 42.8 °F 40.1 °F 41.0 °F 93% 29.79 in 10.0 mi ESE 4.6 mph - 0.02 in Rain Light Rain
8:15 AM 42.8 °F 39.3 °F 41.0 °F 93% 29.79 in 7.0 mi SE 5.8 mph - N/A   Overcast
8:35 AM 42.8 °F 39.3 °F 41.0 °F 93% 29.79 in 10.0 mi SSE 5.8 mph - N/A   Overcast
8:55 AM 42.8 °F 40.1 °F 41.0 °F 93% 29.80 in 10.0 mi SSE 4.6 mph - N/A   Light Drizzle
9:15 AM 42.8 °F - 41.0 °F 93% 29.81 in 10.0 mi Calm Calm - N/A   Overcast
9:35 AM 42.8 °F 40.1 °F 41.0 °F 93% 29.82 in 10.0 mi NW 4.6 mph - N/A Rain Light Rain
10:15 AM 42.8 °F 40.1 °F 41.0 °F 93% 29.83 in 1.5 mi ENE 4.6 mph - 0.04 in Rain Heavy Rain
10:35 AM 42.8 °F 41.1 °F 41.0 °F 93% 29.84 in 5.0 mi NE 3.5 mph - 0.06 in Rain Rain
10:55 AM 42.8 °F 40.1 °F 41.0 °F 93% 29.85 in 7.0 mi East 4.6 mph - 0.07 in Rain Light Rain
11:15 AM 42.8 °F 41.1 °F 41.0 °F 93% 29.86 in 10.0 mi East 3.5 mph - N/A   Light Drizzle
11:35 AM 44.6 °F - 42.8 °F 93% 29.86 in 10.0 mi Calm Calm - N/A   Mostly Cloudy
11:55 AM 44.6 °F - 41.0 °F 87% 29.86 in 10.0 mi Calm Calm - N/A   Overcast
12:15 PM 44.6 °F - 42.8 °F 93% 29.86 in 10.0 mi Calm Calm - N/A   Mostly Cloudy
12:35 PM 46.4 °F - 42.8 °F 87% 29.86 in 10.0 mi Calm Calm - N/A   Scattered Clouds
12:55 PM 48.2 °F - 42.8 °F 82% 29.86 in 10.0 mi Calm Calm - N/A   Scattered Clouds
1:15 PM 48.2 °F - 42.8 °F 82% 29.86 in 10.0 mi Calm Calm - N/A   Overcast
1:35 PM 48.2 °F - 42.8 °F 82% 29.86 in 10.0 mi Calm Calm - N/A Rain Light Rain
1:55 PM 48.2 °F - 42.8 °F 82% 29.86 in 10.0 mi Calm Calm - N/A   Light Drizzle
2:15 PM 48.2 °F - 42.8 °F 82% 29.86 in 7.0 mi Calm Calm - N/A Rain Light Rain
2:35 PM 48.2 °F - 42.8 °F 82% 29.86 in 4.0 mi Calm Calm - 0.01 in Rain Light Rain
2:55 PM 46.4 °F - 44.6 °F 93% 29.87 in 2.5 mi Calm Calm - 0.04 in Rain Rain
3:15 PM 48.2 °F - 44.6 °F 87% 29.87 in 10.0 mi West 3.5 mph - 0.01 in   Overcast
3:35 PM 48.2 °F - 44.6 °F 87% 29.87 in 10.0 mi Calm Calm - 0.01 in   Overcast
3:55 PM 46.4 °F 45.2 °F 42.8 °F 87% 29.88 in 10.0 mi SSE 3.5 mph - 0.01 in   Scattered Clouds
4:15 PM 46.4 °F - 42.8 °F 87% 29.89 in 10.0 mi Calm Calm - N/A   Mostly Cloudy
4:35 PM 46.4 °F - 42.8 °F 87% 29.89 in 10.0 mi Calm Calm - N/A   Overcast
4:55 PM 46.4 °F 45.2 °F 42.8 °F 87% 29.90 in 10.0 mi East 3.5 mph - N/A   Scattered Clouds
5:15 PM 44.6 °F 42.2 °F 41.0 °F 87% 29.90 in 10.0 mi NE 4.6 mph - N/A   Mostly Cloudy
5:35 PM 44.6 °F - 42.8 °F 93% 29.91 in 10.0 mi Calm Calm - N/A   Overcast
5:55 PM 44.6 °F 43.1 °F 42.8 °F 93% 29.91 in 10.0 mi ESE 3.5 mph - N/A   Overcast
6:15 PM 44.6 °F 43.1 °F 42.8 °F 93% 29.92 in 10.0 mi SE 3.5 mph - N/A   Overcast
6:35 PM 42.8 °F - 42.8 °F 100% 29.93 in 10.0 mi Calm Calm - N/A   Overcast
6:55 PM 42.8 °F - 42.8 °F 100% 29.93 in 10.0 mi Calm Calm - N/A   Mostly Cloudy
7:15 PM 42.8 °F - 42.8 °F 100% 29.93 in 10.0 mi Calm Calm - N/A   Mostly Cloudy
7:35 PM 42.8 °F - 41.0 °F 93% 29.93 in 10.0 mi Calm Calm - N/A   Mostly Cloudy
7:55 PM 42.8 °F - 41.0 °F 93% 29.93 in 10.0 mi Calm Calm - N/A   Scattered Clouds
8:15 PM 42.8 °F - 41.0 °F 93% 29.94 in 7.0 mi Calm Calm - N/A   Mostly Cloudy
8:35 PM 41.0 °F - 39.2 °F 93% 29.95 in 1.5 mi Calm Calm - N/A   Overcast
8:55 PM 39.2 °F - 39.2 °F 100% 29.96 in 1.0 mi Calm Calm - N/A   Overcast
9:15 PM 41.0 °F - 41.0 °F 100% 29.97 in 3.0 mi Calm Calm - N/A   Overcast
9:35 PM 41.0 °F - 41.0 °F 100% 29.98 in 5.0 mi Calm Calm - N/A   Overcast
9:55 PM 41.0 °F 39.0 °F 41.0 °F 100% 29.97 in 7.0 mi SE 3.5 mph - N/A   Overcast
10:15 PM 39.2 °F - 39.2 °F 100% 29.98 in 7.0 mi Calm Calm - N/A   Mostly Cloudy
10:35 PM 39.2 °F - 39.2 °F 100% 29.98 in 7.0 mi Calm Calm - N/A   Mostly Cloudy
10:55 PM 39.2 °F - 39.2 °F 100% 29.99 in 3.0 mi Calm Calm - N/A   Mostly Cloudy
11:15 PM 37.4 °F - 37.4 °F 100% 29.99 in 7.0 mi Calm Calm - N/A   Mostly Cloudy
11:35 PM 39.2 °F - 39.2 °F 100% 30.00 in 5.0 mi Calm Calm - N/A   Scattered Clouds
11:55 PM 37.4 °F - 37.4 °F 100% 30.01 in 1.2 mi Calm Calm - N/A   Mist